Hamilton (NZHN)

Aerodrome — Elev 172
New Zealand
S037.51.59.980 E175.19.55.402
Loading chart...

Current Weather

NZHN 210700Z 11005KT 0400 FG BKN110 13/13 Q0999 RMK AUTO VATSIM USE ONLY

Published 44 minutes ago

Airport Activity

Loading chart...
Loading chart...

Standard ATC Positions

CallsignRadio Name / Freq / Voice Room / TypeFrequencyType
NZCH-B_CTR Bay Approach
119.500
nzch-b_ctr
119.500
NZHN_APP Bay Approach
125.300
nzhn_app
125.300
NZHN_TWR Hamilton Tower
126.800
nzhn_twr
126.800
NZHN_DEL Hamilton Delivery
122.900
nzhn_del
122.900
NZHN_DEL Hamilton Delivery
122.900
nzhn_del
122.900
NZHN_ATIS Hamilton ATIS
128.650
nzhn_atis
128.650

Event ATC Positions

This airport has additional control positions that are designated for use only during major events.
These non-standard positions must not be staffed unless specifically activated by the VATNZ Airspace Director as part of an official VATNZ event.
At all other times, controllers should use the designated Standard ATC Positions.

CallsignRadio Name / Freq / Voice Room / TypeFrequencyType
NZCH-D_CTR Christchurch Director
129.200
nzch-d_ctr
129.200

Charts